KK4URH Weather Reports


time (UTC)temp
C
wind
direction
speed
KPH
gust
KPH
rain 1hr
cm
rain 24hr
cm
rain mn
cm
humidity
%
barometer
mb
20260906113048 22 58 1.6 6.4 0.00 0.05 0.05 77 1011.8
20260906111552 22 41 1.6 4.8 0.00 0.05 0.05 77 1011.6
20260906110040 22 35 1.6 4.8 0.00 0.05 0.05 77 1011.3
20260906104539 22 15 3.2 8.0 0.00 0.05 0.05 78 1011.2
20260906103037 22 36 3.2 6.4 0.00 0.05 0.05 78 1011.1
20260906101538 22 31 1.6 4.8 0.00 0.05 0.05 78 1011.0
20260906100036 22 63 0.0 4.8 0.00 0.05 0.05 78 1010.7
20260906094540 22 62 1.6 6.4 0.00 0.05 0.05 78 1010.5
20260906093038 22 106 1.6 4.8 0.00 0.05 0.05 78 1010.4
20260906091535 22 124 0.0 0.0 0.00 0.05 0.05 78 1010.2
20260906090034 22 124 0.0 0.0 0.00 0.05 0.05 78 1010.2
20260906084544 22 127 0.0 0.0 0.00 0.05 0.05 78 1010.0
20260906083036 21 127 0.0 0.0 0.00 0.05 0.05 78 1010.1
20260906081502 21 130 0.0 0.0 0.00 0.05 0.05 77 1009.9
20260906080109 21 130 0.0 0.0 0.00 0.05 0.05 76 1009.6
20260906074600 21 130 0.0 0.0 0.00 0.05 0.05 76 1009.5
20260906073056 21 130 0.0 0.0 0.00 0.05 0.05 76 1009.4
20260906071601 21 130 0.0 0.0 0.00 0.05 0.05 76 1009.4
20260906070056 21 130 0.0 0.0 0.00 0.05 0.05 75 1009.4
20260906064551 22 130 0.0 0.0 0.00 0.05 0.05 75 1009.5
20260906063055 22 130 0.0 0.0 0.00 0.05 0.05 74 1009.7
20260906061553 22 130 0.0 0.0 0.00 0.05 0.05 74 1009.8
20260906060047 22 130 0.0 0.0 0.00 0.05 0.05 74 1010.0
20260906054517 22 130 0.0 0.0 0.00 0.05 0.05 73 1010.1
20260906053015 22 130 0.0 0.0 0.00 0.05 0.05 73 1010.3
20260906051512 22 130 0.0 0.0 0.00 0.05 0.05 72 1010.5
20260906050009 22 130 0.0 0.0 0.00 0.05 0.05 72 1010.4
20260906044513 22 130 0.0 0.0 0.00 0.05 0.05 71 1010.8
20260906043007 22 130 0.0 0.0 0.00 0.05 0.05 70 1010.8
20260906041505 23 130 0.0 0.0 0.00 0.05 0.05 69 1010.8
20260906040006 23 130 0.0 0.0 0.00 0.05 0.05 68 1010.9
20260906034506 23 130 0.0 0.0 0.00 0.05 0.05 68 1011.0
20260906033005 23 130 0.0 0.0 0.00 0.05 0.05 67 1011.0
20260906031531 23 130 0.0 0.0 0.00 0.05 0.05 67 1010.9
20260906030030 23 130 0.0 0.0 0.00 0.05 0.05 66 1010.8
20260906024527 23 128 0.0 0.0 0.00 0.05 0.05 66 1010.6
20260906023026 23 128 0.0 0.0 0.00 0.05 0.05 67 1010.9
20260906021526 23 128 0.0 1.6 0.00 0.05 0.05 68 1010.7
20260906020026 23 133 1.6 3.2 0.00 0.05 0.05 73 1010.4
20260906014535 23 133 0.0 0.0 0.00 0.05 0.05 70 1010.5
20260906013021 23 133 0.0 0.0 0.00 0.05 0.05 68 1010.5
20260906011533 23 133 0.0 0.0 0.00 0.05 0.05 67 1010.3
20260906010019 24 133 0.0 0.0 0.00 0.05 0.05 67 1010.3
20260906004547 24 133 0.0 0.0 0.00 0.05 0.05 67 1010.2
20260906003100 24 133 0.0 0.0 0.00 0.05 0.05 66 1010.1
20260906001544 24 133 0.0 0.0 0.00 0.05 0.05 66 1010.0
20260906000043 24 133 0.0 0.0 0.00 0.05 0.05 65 1009.7
20260905234542 25 133 0.0 1.6 0.00 0.05 0.05 65 1009.6
20260905233042 25 133 0.0 0.0 0.00 0.05 0.05 65 1009.2
20260905231512 25 133 0.0 1.6 0.00 0.05 0.05 65 1009.0
20260905230015 25 133 0.0 1.6 0.00 0.05 0.05 66 1008.4
20260905224515 24 134 0.0 0.0 0.00 0.05 0.05 65 1008.1
20260905223007 24 134 0.0 0.0 0.00 0.05 0.05 66 1008.3
20260905221506 24 134 0.0 0.0 0.00 0.05 0.05 65 1008.8
20260905220006 24 134 0.0 0.0 0.03 0.05 0.05 64 1009.0
20260905214501 25 134 0.0 0.0 0.05 0.05 0.05 64 1008.8
20260905213059 25 134 0.0 0.0 0.05 0.05 0.05 65 1008.7
20260905211556 25 134 0.0 4.8 0.05 0.05 0.05 63 1008.5
20260905210055 26 19 1.6 6.4 0.03 0.03 0.03 59 1008.8
20260905204558 27 28 1.6 6.4 0.00 0.00 0.00 56 1008.5
20260905203053 27 37 0.0 9.7 0.00 0.00 0.00 55 1008.6
20260905201545 28 355 4.8 14.5 0.00 0.00 0.00 53 1008.5
20260905200050 29 348 6.4 16.1 0.00 0.00 0.00 52 1008.4
20260905194535 33 12 11.3 22.5 0.00 0.00 0.00 42 1008.3
20260905193031 35 70 0.0 0.0 0.00 0.00 0.00 38 1008.1
20260905191530 35 71 0.0 3.2 0.00 0.00 0.00 37 1007.8
20260905190034 35 71 0.0 1.6 0.00 0.00 0.00 34 1007.8
20260905184528 35 147 0.0 6.4 0.00 0.00 0.00 36 1007.9
20260905183058 36 5 0.0 6.4 0.00 0.00 0.00 34 1008.2
20260905181554 35 22 0.0 3.2 0.00 0.00 0.00 37 1008.4
20260905180020 35 28 0.0 4.8 0.00 0.00 0.00 37 1008.9
20260905174517 35 221 1.6 8.0 0.00 0.00 0.00 38 1009.3
20260905173010 35 100 0.0 4.8 0.00 0.00 0.00 39 1009.6
20260905171518 35 225 0.0 4.8 0.00 0.00 0.00 40 1010.0
20260905170006 35 238 1.6 11.3 0.00 0.00 0.00 40 1010.2
20260905164505 35 79 0.0 3.2 0.00 0.00 0.00 42 1010.3
20260905163101 35 335 0.0 6.4 0.00 0.00 0.00 42 1010.5
20260905161554 33 73 0.0 3.2 0.00 0.00 0.00 43 1010.9
20260905160054 33 348 1.6 6.4 0.00 0.00 0.00 44 1011.0
20260905154556 33 205 0.0 3.2 0.00 0.00 0.00 47 1011.3
20260905153029 33 338 0.0 3.2 0.00 0.00 0.00 47 1011.4
20260905151525 32 343 0.0 0.0 0.00 0.00 0.00 51 1011.4
20260905150015 32 200 0.0 1.6 0.00 0.00 0.00 54 1011.6
20260905144517 31 331 0.0 4.8 0.00 0.00 0.00 54 1011.6
20260905143015 31 207 0.0 3.2 0.00 0.00 0.00 56 1011.5
20260905141515 30 225 0.0 4.8 0.00 0.00 0.00 57 1011.5
20260905140048 29 257 0.0 0.0 0.00 0.00 0.00 60 1011.4
20260905134544 28 12 0.0 3.2 0.00 0.00 0.00 60 1011.4
20260905133012 27 286 0.0 3.2 0.00 0.00 0.00 60 1011.4
20260905131526 26 193 0.0 4.8 0.00 0.00 0.00 60 1011.5
20260905130042 26 225 0.0 1.6 0.00 0.00 0.00 61 1011.7
20260905124542 26 223 0.0 1.6 0.00 0.00 0.00 62 1011.7
20260905123038 25 296 0.0 1.6 0.00 0.00 0.00 64 1011.8
20260905121538 25 281 0.0 3.2 0.00 0.00 0.00 65 1011.6
20260905120037 24 194 0.0 0.0 0.00 0.00 0.00 66 1011.5
20260905114543 23 194 0.0 1.6 0.00 0.00 0.00 67 1011.4